STARLINK-1050 (44755 NORAD) Tracking and Keplerian Element Data

This shows tracking and keplerian element data for the satellite.

Feedback or suggestion? Click here.




ElementValue
Catalog44755
NameSTARLINK-1050
Epoch Orbit1116
Epoch Day23.25001157
Epoch Year2020
RAAN190.3622
Inclination53.0087
Eccentricity0.0002025
Argument of Perigee93.2431
Mean Anonmoly240.1703
Mean Motion15.05505257
Decay Rate0.0041876
L11 44755U 19074AU 20023.25001157 .00418760 00000-0 27147-1 0 9992
L22 44755 53.0087 190.3622 0002025 93.2431 240.1703 15.05505257 11165

Live tracking and technical data element details for STARLINK-1050 (NORAD 44755). STARLINK-1050 can be tracked NOW for your location showing map with azimuth and elevation plus other details from your city location.

Track the satellite on the map from your city or location and see movement details for azimuth, elevation, latitude, longitude, range, height, and movement on the map or in text.







IsCatalogInMostPopularTable: catalog: 44755, numindb: 10
Update: records affected: 1



GetName: 44755 STARLINK-1050

Hit Count: updated at: Fri, 24 Jan 2020 12:01:12 GMT